Flag for U.S.A. Weather past 2 weeks in St. George, Utah, U.S.A.

Now
36 °F

Sunny.


Feels Like: 36 °F
Forecast: 33 / 50 °F
Wind: No wind

Location: Saint George

Current Time: Mar 4, 2015 at 9:13:13 AM

Latest Report: Mar 4, 2015 at 8:35 AM


Visibility: 10 mi

Pressure: 30.15 "Hg

Humidity: 65%

Dew point: 25 °F

Location of St. GeorgeLocation

Historic Weather in St. George — Graph

°F

St. George temperature yesterday

Maximum temperature yesterday: 50 °F (at 1:55 PM)
Minimum temperature yesterday: 39 °F (at 12:55 AM)
Average temperature yesterday: 42 °F

Past Weeks' High & Low Weather Summary

 TemperatureHumidityPressure
High72 °F (Feb 20, 2:15 PM)87% (Feb 23, 7:15 AM)30.31 "Hg (Feb 23, 7:15 AM)
Low32 °F (Feb 23, 7:15 AM)12% (Feb 18, 5:15 PM)29.64 "Hg (Feb 27, 4:35 PM)
Average46 °F52%29.98 "Hg
* Reported Feb 17 7:15 AM — Mar 4 7:55 AM, St. George, Weather by CustomWeather, © 2015

Note: Actual official high and low records may vary slightly from our data, if they occured in-between our weather recording intervals... More about our weather records

Advertising

St. George weather history for previous 24 hours

 ConditionsComfort  
Time TempWeatherWind HumidityBarometerVisibility
7:55 AM
Wed, Mar 4
36 °FSunny.No wind60%30.13 "Hg10 mi
7:35 AM34 °FSunny.5 mph70%30.12 "Hg10 mi
7:15 AM34 °FSunny.5 mph70%30.11 "Hg10 mi
6:55 AM34 °FClear.No wind70%30.10 "Hg10 mi
6:35 AM34 °FClear.6 mph70%30.09 "Hg10 mi
6:15 AM34 °FClear.5 mph70%30.09 "Hg10 mi
5:55 AM34 °FClear.5 mph70%30.08 "Hg10 mi
5:35 AM34 °FClear.7 mph70%30.07 "Hg10 mi
5:15 AM32 °FClear.8 mph75%30.07 "Hg10 mi
4:55 AM34 °FClear.6 mph75%30.06 "Hg10 mi
4:35 AM34 °FClear.7 mph70%30.06 "Hg10 mi
4:15 AM36 °FClear.5 mph70%30.05 "Hg10 mi
3:55 AM36 °FClear.5 mph70%30.05 "Hg10 mi
3:35 AM36 °FClear.3 mph70%30.04 "Hg10 mi
3:15 AM37 °FClear.No wind60%30.04 "Hg10 mi
2:55 AM36 °FClear.No wind70%30.04 "Hg10 mi
2:35 AM36 °FPassing clouds.5 mph70%30.04 "Hg10 mi
2:15 AM36 °FClear.3 mph70%30.04 "Hg10 mi
1:55 AM36 °FPassing clouds.6 mph70%30.03 "Hg10 mi
1:35 AM39 °FPassing clouds.6 mph56%30.03 "Hg10 mi
1:15 AM39 °FPassing clouds.7 mph56%30.03 "Hg10 mi
12:55 AM39 °FClear.6 mph56%30.03 "Hg10 mi
12:35 AM39 °FClear.3 mph61%30.03 "Hg10 mi
12:15 AM39 °FClear.No wind65%30.02 "Hg10 mi
11:55 PM
Tue, Mar 3
39 °FClear.7 mph61%30.02 "Hg10 mi
11:35 PM39 °FClear.10 mph61%30.01 "Hg10 mi
11:15 PM39 °FClear.7 mph65%30.01 "Hg10 mi
10:55 PM39 °FPassing clouds.5 mph70%30.01 "Hg10 mi
10:35 PM39 °FPassing clouds.7 mph70%30.00 "Hg10 mi
10:15 PM39 °FClear.5 mph81%29.99 "Hg10 mi
9:55 PM41 °FClear.9 mph76%29.98 "Hg10 mi
9:35 PM39 °FClear.8 mph81%29.97 "Hg10 mi
9:15 PM41 °FClear.6 mph76%29.96 "Hg10 mi
8:55 PM41 °FClear.6 mph76%29.96 "Hg10 mi
8:15 PM41 °FClear.7 mph76%29.95 "Hg10 mi
7:55 PM41 °FPassing clouds.6 mph76%29.94 "Hg10 mi
7:35 PM41 °FClear.No wind76%29.93 "Hg10 mi
7:15 PM41 °FClear.3 mph76%29.92 "Hg10 mi
6:55 PM41 °FClear.6 mph76%29.92 "Hg10 mi
6:35 PM43 °FClear.5 mph71%29.91 "Hg10 mi
6:15 PM43 °FPassing clouds.13 mph76%29.90 "Hg10 mi
5:55 PM43 °FPartly sunny.13 mph76%29.89 "Hg10 mi
5:35 PM43 °FMore clouds than sun.10 mph76%29.90 "Hg10 mi
5:15 PM43 °FOvercast.7 mph76%29.89 "Hg9 mi
4:55 PM45 °FCloudy.10 mph71%29.90 "Hg10 mi
4:35 PM45 °FMostly cloudy.10 mph71%29.89 "Hg10 mi
4:15 PM46 °FBroken clouds.9 mph62%29.89 "Hg10 mi
3:55 PM46 °FBroken clouds.7 mph66%29.88 "Hg10 mi
3:35 PM48 °FBroken clouds.12 mph58%29.88 "Hg10 mi
3:15 PM48 °FBroken clouds.14 mph62%29.88 "Hg10 mi
2:55 PM50 °FPassing clouds.13 mph58%29.87 "Hg10 mi
2:35 PM48 °FScattered clouds.15 mph58%29.86 "Hg10 mi
2:15 PM48 °FThundershowers. Sunny.17 mph54%29.87 "Hg10 mi
1:55 PM50 °FPassing clouds.14 mph58%29.88 "Hg10 mi
1:35 PM48 °FBroken clouds.13 mph62%29.90 "Hg10 mi
1:15 PM48 °FPartly sunny.8 mph66%29.91 "Hg10 mi
12:55 PM46 °FPartly sunny.6 mph71%29.91 "Hg10 mi
12:35 PM46 °FMore clouds than sun.5 mph71%29.92 "Hg10 mi
12:15 PM46 °FPartly sunny.5 mph71%29.94 "Hg10 mi
11:55 AM46 °FPartly sunny.5 mph71%29.94 "Hg10 mi
11:35 AM45 °FOvercast.5 mph76%29.95 "Hg10 mi
11:15 AM45 °FPartly sunny.3 mph76%29.95 "Hg10 mi
10:55 AM45 °FBroken clouds.No wind71%29.95 "Hg10 mi
10:35 AM45 °FOvercast.6 mph71%29.96 "Hg10 mi
10:15 AM45 °FOvercast.No wind71%29.96 "Hg10 mi
9:55 AM43 °FOvercast.No wind76%29.96 "Hg10 mi
9:35 AM43 °FOvercast.5 mph76%29.95 "Hg10 mi
9:15 AM41 °FOvercast.No wind81%29.95 "Hg10 mi
Weather by CustomWeather, © 2015

See weather overviewHow to use our weather pages